�������l�o���
Date,Time,MP-1(��Sv/h),MP-2(��Sv/h),MP-3(��Sv/h),MP-4(��Sv/h),MP-5(��Sv/h),MP-6(��Sv/h),MP-7(��Sv/h),MP-8(��Sv/h),����,����(m/s),���J
2018/10/21,00:00,0.786,1.184,0.835,1.496,1.064,0.457,0.808,0.768,�k��,8.0,��
2018/10/21,00:10,0.787,1.185,0.835,1.496,1.067,0.458,0.808,0.766,�k��,7.3,��
2018/10/21,00:20,0.784,1.185,0.835,1.495,1.066,0.457,0.809,0.768,�k��,7.3,��
2018/10/21,00:30,0.785,1.183,0.835,1.497,1.065,0.460,0.807,0.766,�k��,7.5,��
2018/10/21,00:40,0.785,1.183,0.833,1.497,1.066,0.460,0.809,0.768,�k��,7.7,��
2018/10/21,00:50,0.786,1.183,0.835,1.496,1.067,0.459,0.809,0.768,�k��,6.9,��
2018/10/21,01:00,0.786,1.185,0.836,1.498,1.063,0.460,0.809,0.768,�k��,7.5,��
2018/10/21,01:10,0.785,1.185,0.834,1.494,1.065,0.460,0.809,0.768,�k��,7.0,��
2018/10/21,01:20,0.784,1.186,0.833,1.496,1.068,0.460,0.809,0.767,�k��,6.5,��
2018/10/21,01:30,0.785,1.185,0.835,1.495,1.067,0.458,0.811,0.767,�k��,7.5,��
2018/10/21,01:40,0.785,1.184,0.835,1.494,1.066,0.459,0.809,0.767,�k��,8.1,��
2018/10/21,01:50,0.782,1.185,0.832,1.494,1.066,0.460,0.810,0.768,�k�k��,7.3,��
2018/10/21,02:00,0.784,1.185,0.836,1.498,1.065,0.459,0.809,0.767,�k��,7.0,��
2018/10/21,02:10,0.782,1.182,0.834,1.494,1.064,0.459,0.810,0.766,�k��,7.6,��
2018/10/21,02:20,0.783,1.182,0.837,1.496,1.065,0.457,0.809,0.766,�k��,8.2,��
2018/10/21,02:30,0.784,1.182,0.835,1.497,1.063,0.460,0.808,0.767,�k��,7.2,��
2018/10/21,02:40,0.781,1.185,0.836,1.496,1.064,0.458,0.808,0.767,�k��,6.2,��
2018/10/21,02:50,0.784,1.185,0.835,1.495,1.066,0.457,0.809,0.765,�k��,6.6,��
2018/10/21,03:00,0.785,1.185,0.836,1.499,1.065,0.459,0.808,0.768,�k��,6.3,��
2018/10/21,03:10,0.783,1.182,0.836,1.495,1.066,0.459,0.808,0.767,�k��,6.7,��
2018/10/21,03:20,0.783,1.183,0.834,1.496,1.065,0.458,0.808,0.767,�k��,6.8,��
2018/10/21,03:30,0.784,1.182,0.836,1.495,1.065,0.458,0.807,0.767,�k�k��,7.5,��
2018/10/21,03:40,0.784,1.186,0.836,1.498,1.064,0.457,0.811,0.767,�k�k��,7.1,��
2018/10/21,03:50,0.784,1.186,0.834,1.495,1.064,0.459,0.809,0.767,�k�k��,5.7,��
2018/10/21,04:00,0.784,1.183,0.832,1.495,1.064,0.459,0.810,0.766,�k�k��,7.4,��
2018/10/21,04:10,0.781,1.183,0.834,1.498,1.064,0.459,0.809,0.766,�k�k��,8.4,��
2018/10/21,04:20,0.784,1.184,0.834,1.496,1.066,0.458,0.808,0.766,�k�k��,8.4,��
2018/10/21,04:30,0.783,1.183,0.832,1.498,1.066,0.458,0.808,0.765,�k�k��,8.1,��
2018/10/21,04:40,0.784,1.183,0.836,1.497,1.064,0.458,0.809,0.767,�k�k��,8.8,��
2018/10/21,04:50,0.782,1.183,0.835,1.497,1.064,0.458,0.809,0.766,�k�k��,8.2,��
2018/10/21,05:00,0.783,1.184,0.836,1.496,1.065,0.458,0.807,0.765,�k�k��,7.5,��
2018/10/21,05:10,0.780,1.182,0.836,1.499,1.065,0.458,0.809,0.765,�k��,6.6,��
2018/10/21,05:20,0.782,1.182,0.836,1.495,1.065,0.458,0.808,0.765,�k��,6.5,��
2018/10/21,05:30,0.782,1.184,0.834,1.496,1.064,0.457,0.806,0.764,�k��,7.2,��
2018/10/21,05:40,0.782,1.184,0.834,1.495,1.066,0.459,0.809,0.766,�k��,7.3,��
2018/10/21,05:50,0.779,1.182,0.834,1.499,1.063,0.459,0.809,0.765,�k��,7.6,��
2018/10/21,06:00,0.782,1.182,0.832,1.497,1.064,0.459,0.808,0.765,�k��,6.8,��
2018/10/21,06:10,0.783,1.182,0.835,1.495,1.066,0.458,0.810,0.766,�k��,7.0,��
2018/10/21,06:20,0.782,1.184,0.834,1.497,1.065,0.458,0.809,0.765,�k�k��,7.1,��
2018/10/21,06:30,0.784,1.181,0.832,1.496,1.065,0.456,0.808,0.765,�k�k��,7.3,��
2018/10/21,06:40,0.784,1.186,0.835,1.496,1.064,0.456,0.810,0.767,�k��,7.3,��
2018/10/21,06:50,0.783,1.183,0.833,1.497,1.063,0.457,0.808,0.765,�k��,8.0,��
2018/10/21,07:00,0.783,1.182,0.834,1.497,1.066,0.459,0.808,0.765,�k��,8.6,��
2018/10/21,07:10,0.783,1.183,0.835,1.498,1.064,0.458,0.809,0.767,�k��,7.8,��
2018/10/21,07:20,0.783,1.185,0.834,1.496,1.063,0.457,0.809,0.766,�k��,6.8,��
2018/10/21,07:30,0.783,1.183,0.835,1.499,1.066,0.457,0.810,0.766,�k��,7.2,��
2018/10/21,07:40,0.785,1.184,0.834,1.500,1.068,0.460,0.810,0.767,�k��,7.0,��
2018/10/21,07:50,0.784,1.187,0.836,1.498,1.065,0.458,0.809,0.766,�k��,7.0,��
2018/10/21,08:00,0.784,1.187,0.837,1.497,1.066,0.458,0.810,0.768,�k��,7.3,��
2018/10/21,08:10,0.785,1.185,0.835,1.496,1.066,0.460,0.808,0.766,�k��,8.0,��
2018/10/21,08:20,0.783,1.186,0.838,1.497,1.066,0.459,0.809,0.767,�k��,6.4,��
2018/10/21,08:30,0.786,1.186,0.838,1.496,1.067,0.459,0.810,0.766,�k��,6.6,��
2018/10/21,08:40,0.785,1.187,0.838,1.497,1.069,0.459,0.809,0.769,�k��,5.0,��
2018/10/21,08:50,0.784,1.186,0.837,1.499,1.069,0.459,0.810,0.769,�k��,4.2,��
2018/10/21,09:00,0.786,1.185,0.838,1.498,1.069,0.461,0.809,0.767,�k��,4.0,��
2018/10/21,09:10,0.787,1.186,0.836,1.498,1.069,0.459,0.808,0.769,�k��,4.5,��
2018/10/21,09:20,0.786,1.186,0.837,1.500,1.068,0.461,0.809,0.768,�k�k��,4.6,��
2018/10/21,09:30,0.785,1.187,0.839,1.500,1.067,0.460,0.809,0.768,�k�k��,5.4,��
2018/10/21,09:40,0.786,1.186,0.837,1.497,1.068,0.460,0.810,0.769,�k�k��,3.9,��
2018/10/21,09:50,0.785,1.187,0.837,1.499,1.069,0.458,0.809,0.768,�k�k��,4.9,��
2018/10/21,10:00,0.785,1.188,0.840,1.499,1.070,0.458,0.810,0.766,�k�k��,4.8,��
2018/10/21,10:10,0.787,1.188,0.838,1.500,1.068,0.458,0.809,0.768,�k�k��,4.4,��
2018/10/21,10:20,0.788,1.191,0.835,1.500,1.068,0.458,0.810,0.767,�k�k��,6.3,��
2018/10/21,10:30,0.785,1.190,0.837,1.501,1.070,0.457,0.811,0.766,�k,6.5,��
2018/10/21,10:40,0.788,1.190,0.836,1.503,1.067,0.458,0.810,0.767,�k,6.3,��
2018/10/21,10:50,0.786,1.191,0.836,1.501,1.069,0.459,0.811,0.765,�k�k��,5.7,��
2018/10/21,11:00,0.787,1.190,0.837,1.501,1.072,0.459,0.809,0.766,�k�k��,5.7,��
2018/10/21,11:10,0.787,1.191,0.836,1.503,1.072,0.459,0.811,0.764,�k�k��,7.1,��
2018/10/21,11:20,0.788,1.193,0.836,1.502,1.071,0.459,0.810,0.766,�k,6.0,��
2018/10/21,11:30,0.790,1.193,0.835,1.503,1.071,0.459,0.811,0.766,�k�k��,4.9,��
2018/10/21,11:40,0.790,1.193,0.838,1.499,1.075,0.459,0.812,0.767,�k,5.7,��
2018/10/21,11:50,0.788,1.194,0.836,1.502,1.075,0.458,0.811,0.768,�k�k��,7.2,��
2018/10/21,12:00,0.790,1.191,0.840,1.503,1.075,0.459,0.811,0.767,�k�k��,8.2,��
2018/10/21,12:10,0.790,1.194,0.840,1.503,1.073,0.458,0.811,0.767,�k�k��,8.0,��
2018/10/21,12:20,0.790,1.193,0.839,1.504,1.074,0.461,0.812,0.767,�k�k��,7.9,��
2018/10/21,12:30,0.787,1.194,0.838,1.504,1.074,0.460,0.811,0.766,�k�k��,7.3,��
2018/10/21,12:40,0.787,1.193,0.836,1.503,1.076,0.459,0.811,0.766,�k�k��,7.8,��
2018/10/21,12:50,0.788,1.194,0.839,1.502,1.074,0.459,0.811,0.766,�k�k��,8.4,��
2018/10/21,13:00,0.787,1.194,0.840,1.503,1.075,0.459,0.812,0.767,�k�k��,7.7,��
2018/10/21,13:10,0.791,1.194,0.837,1.504,1.078,0.460,0.810,0.767,�k�k��,7.7,��
2018/10/21,13:20,0.787,1.195,0.840,1.503,1.075,0.459,0.811,0.766,�k�k��,7.8,��
2018/10/21,13:30,0.790,1.194,0.839,1.505,1.077,0.458,0.813,0.767,�k�k��,8.5,��
2018/10/21,13:40,0.789,1.194,0.839,1.502,1.075,0.459,0.812,0.767,�k�k��,7.4,��
2018/10/21,13:50,0.791,1.196,0.839,1.506,1.077,0.459,0.811,0.766,�k�k��,6.8,��
2018/10/21,14:00,0.789,1.196,0.841,1.504,1.080,0.460,0.811,0.766,�k��,7.4,��
2018/10/21,14:10,0.790,1.192,0.840,1.505,1.077,0.458,0.812,0.767,�k��,7.3,��
2018/10/21,14:20,0.792,1.196,0.841,1.502,1.079,0.459,0.809,0.767,�k�k��,6.9,��
2018/10/21,14:30,0.790,1.197,0.839,1.506,1.079,0.459,0.811,0.768,�k�k��,7.0,��
2018/10/21,14:40,0.790,1.194,0.840,1.506,1.079,0.459,0.812,0.767,�k��,7.0,��
2018/10/21,14:50,0.789,1.196,0.839,1.503,1.078,0.460,0.810,0.768,�k��,5.9,��
2018/10/21,15:00,0.790,1.195,0.840,1.507,1.077,0.460,0.811,0.767,�k�k��,5.5,��
2018/10/21,15:10,0.789,1.194,0.839,1.505,1.079,0.459,0.811,0.767,�k�k��,5.7,��
2018/10/21,15:20,0.790,1.196,0.841,1.504,1.078,0.460,0.811,0.767,�k�k��,4.6,��
2018/10/21,15:30,0.790,1.193,0.840,1.505,1.079,0.460,0.811,0.767,�k�k��,4.3,��
2018/10/21,15:40,0.791,1.195,0.841,1.504,1.078,0.462,0.812,0.768,�k�k��,3.8,��
2018/10/21,15:50,0.789,1.195,0.840,1.505,1.077,0.460,0.813,0.769,�k,5.0,��
2018/10/21,16:00,0.788,1.195,0.840,1.506,1.079,0.461,0.812,0.768,�k,4.4,��
2018/10/21,16:10,0.788,1.197,0.839,1.504,1.078,0.462,0.812,0.769,�k,4.3,��
2018/10/21,16:20,0.789,1.197,0.840,1.504,1.075,0.461,0.813,0.767,�k,4.1,��
2018/10/21,16:30,0.790,1.196,0.841,1.508,1.078,0.462,0.814,0.769,�k,4.2,��
2018/10/21,16:40,0.790,1.199,0.840,1.504,1.076,0.461,0.814,0.769,�k,3.7,��
2018/10/21,16:50,0.788,1.200,0.837,1.502,1.077,0.462,0.812,0.771,�k,3.6,��
2018/10/21,17:00,0.791,1.197,0.839,1.504,1.077,0.462,0.813,0.768,�k,4.1,��
2018/10/21,17:10,0.791,1.198,0.837,1.504,1.080,0.462,0.810,0.770,�k,3.8,��
2018/10/21,17:20,0.794,1.197,0.841,1.505,1.081,0.461,0.811,0.769,�k�k��,3.3,��
2018/10/21,17:30,0.792,1.198,0.841,1.506,1.080,0.460,0.811,0.769,�k�k��,3.1,��
2018/10/21,17:40,0.792,1.197,0.841,1.504,1.079,0.461,0.812,0.769,�k�k��,3.4,��
2018/10/21,17:50,0.791,1.195,0.841,1.503,1.079,0.461,0.810,0.768,�k��,2.6,��
2018/10/21,18:00,0.791,1.196,0.841,1.504,1.080,0.459,0.812,0.769,�k��,2.6,��
2018/10/21,18:10,0.790,1.197,0.842,1.505,1.080,0.461,0.812,0.770,�k��,2.0,��
2018/10/21,18:20,0.791,1.198,0.840,1.504,1.079,0.462,0.811,0.769,�k��,2.0,��
2018/10/21,18:30,0.792,1.197,0.840,1.505,1.078,0.460,0.812,0.768,�k��,2.0,��
2018/10/21,18:40,0.790,1.198,0.840,1.506,1.078,0.461,0.812,0.767,�k��,1.4,��
2018/10/21,18:50,0.791,1.197,0.840,1.502,1.079,0.461,0.810,0.768,�k��,1.7,��
2018/10/21,19:00,0.790,1.197,0.841,1.504,1.079,0.459,0.813,0.768,�k��,1.7,��
2018/10/21,19:10,0.792,1.196,0.840,1.504,1.081,0.461,0.811,0.767,�k��,1.7,��
2018/10/21,19:20,0.791,1.195,0.840,1.504,1.079,0.461,0.810,0.768,�k��,1.9,��
2018/10/21,19:30,0.791,1.199,0.839,1.504,1.082,0.460,0.810,0.767,�k��,2.0,��
2018/10/21,19:40,0.791,1.194,0.842,1.506,1.078,0.460,0.810,0.767,�k��,2.3,��
2018/10/21,19:50,0.791,1.195,0.839,1.504,1.077,0.461,0.810,0.766,�k��,2.5,��
2018/10/21,20:00,0.791,1.195,0.841,1.505,1.078,0.461,0.812,0.767,�k��,2.3,��
2018/10/21,20:10,0.791,1.199,0.838,1.503,1.079,0.462,0.810,0.767,�k��,3.3,��
2018/10/21,20:20,0.791,1.195,0.839,1.503,1.078,0.460,0.809,0.767,�k��,3.9,��
2018/10/21,20:30,0.791,1.195,0.841,1.504,1.078,0.460,0.810,0.767,�k��,3.7,��
2018/10/21,20:40,0.790,1.198,0.842,1.505,1.078,0.460,0.812,0.768,�k��,3.6,��
2018/10/21,20:50,0.790,1.196,0.841,1.503,1.077,0.461,0.811,0.766,�k��,3.6,��
2018/10/21,21:00,0.792,1.196,0.840,1.504,1.078,0.459,0.810,0.767,�k��,4.1,��
2018/10/21,21:10,0.789,1.196,0.838,1.505,1.075,0.460,0.809,0.769,�k��,4.1,��
2018/10/21,21:20,0.789,1.195,0.840,1.503,1.078,0.460,0.811,0.767,�k��,4.5,��
2018/10/21,21:30,0.790,1.192,0.838,1.502,1.080,0.460,0.811,0.767,�k�k��,4.9,��
2018/10/21,21:40,0.791,1.197,0.839,1.502,1.079,0.461,0.811,0.770,�k��,5.3,��
2018/10/21,21:50,0.791,1.194,0.840,1.503,1.077,0.461,0.810,0.767,�k��,5.9,��
2018/10/21,22:00,0.789,1.191,0.838,1.508,1.075,0.461,0.811,0.767,�k�k��,5.9,��
2018/10/21,22:10,0.790,1.197,0.838,1.505,1.074,0.459,0.809,0.766,�k�k��,5.4,��
2018/10/21,22:20,0.791,1.197,0.837,1.503,1.076,0.460,0.811,0.769,�k�k��,4.9,��
2018/10/21,22:30,0.791,1.195,0.840,1.505,1.079,0.461,0.811,0.768,�k�k��,5.0,��
2018/10/21,22:40,0.790,1.195,0.839,1.503,1.078,0.460,0.811,0.768,�k�k��,5.1,��
2018/10/21,22:50,0.790,1.196,0.839,1.505,1.076,0.462,0.809,0.769,�k�k��,4.5,��
2018/10/21,23:00,0.789,1.194,0.840,1.504,1.078,0.460,0.811,0.768,�k�k��,4.8,��
2018/10/21,23:10,0.790,1.194,0.840,1.502,1.078,0.463,0.810,0.767,�k,4.7,��
2018/10/21,23:20,0.790,1.196,0.837,1.506,1.076,0.459,0.811,0.767,�k�k��,3.7,��
2018/10/21,23:30,0.789,1.193,0.839,1.503,1.076,0.462,0.811,0.768,�k�k��,4.1,��
2018/10/21,23:40,0.790,1.193,0.840,1.502,1.077,0.461,0.809,0.766,�k�k��,4.3,��
2018/10/21,23:50,0.790,1.194,0.840,1.503,1.078,0.461,0.811,0.768,�k�k��,4.8,��
